COSMOS 1275 DEB, 39935

Orbit data source: Space-Track

COSMOS 1275 DEB, 39935 is space debris in LEO originally from a launch on Thu, 04 Jun 1981 UTC launched from the Plesetsk Missile And Space Complex (PKMTR). Debris objects in space refer to the collection of defunct objects orbiting the Earth. Examples of debris include non-operational satellites, rocket bodies, and fragments generated from explosions, collisions, or faulty payload assembly.

Loading next visibility...
Identifier
39935, 1981-053MV
Orbit
LEO
Country
Flag of CISCIS
Related business
Manufacturer
Unknown
Mission
Spacecraft
Bus & Motor
Unknown
Mass
Unknown
Launch date (UTC)
1981-06-04 (45 years ago)
Launch vehicle
Unknown
Launch site
Plesetsk Missile And Space Complex (PKMTR)
Object type
Payload
Rocket body
Debris
Shape & HBR
Unknown shape, 0.1 m
Radar Cross Section
Small (<0.1 m²)

Expand to show TLE details & history
Last TLE update: 1 day ago

TLE from 1 day ago
0 COSMOS 1275 DEB
1 39935U 81053MV  26093.58075155  .00001409  00000-0  98671-3 0  9990
2 39935  82.8258 217.4808 0033079 355.1896  20.7678 13.97496906601666
Epoch: 2026-04-03T13:56Z
TLE epoch observation values (Epoch: 2026-04-03T13:56:16.933Z)
Latitude
15.94337°
Longitude
178.54729°
Altitude
882.224 km
Speed
7.424 km/s
True Right ascension
14h 38m 07s
True Declination
15° 51' 16"
Sunlit
Object was in full shadow at epoch
Visualization orbit readout
Latitude
Unknown
Longitude
Unknown
Altitude
Unknown
Speed
Unknown
Apparent Right ascension
Unknown
Apparent Declination
Unknown
Sunlit
N/A
Visualization observer readout
Local Sidereal Time
05:11:56
Azimuth
Unknown
Elevation
Unknown
Doppler factor
Unknown
Orbital elements
Apogee altitude
923.672 km
Perigee altitude
875.524 km
Semi-major axis
7,277.735 km
Eccentricity
0.00331
Inclination
82.8258°
RAAN
217.4808°
Arg. of periapsis
355.1896°
True anomaly
20.90273°
Mean anomaly
20.7678°
Eccentric anomaly
20.83521°
Mean motion
3.49582 °/min
Orbital period
102.98 mins
BSTAR
0.00098671
Loading maneuver chart data...
Computing Atmospheric mass density...
Loading historical data...
Loading historical data...
Loading historical data...
Loading historical data...
Loading historical data...
Loading historical data...
Loading historical data...

Documentation

Showing up to 5 results
|